{"data":{"norad_id":68057,"intl_designator":"2026-041T","name":"STARLINK-36954","alt_names":[],"object_type":"PAYLOAD","status":"ACTIVE","operator":null,"country":"US","launch_date":"2026-03-02","launch_site_code":"AFETR","launch_vehicle":null,"mission":null,"orbit_class":"UNKNOWN","rcs_meters":null,"size_class":null,"mass_kg":null,"dimensions":null,"purposes":["comms"],"wikipedia_slug":null,"has_3d_model":false,"image_url":null,"decayed_at":null,"tle_current":{"epoch":"2026-09-19T14:55:51.633696Z","epoch_age_seconds":135481,"freshness":"FRESH","line1":"1 68057U 26041T   26262.62212539  .00026986  00000+0  80707-3 0  9992","line2":"2 68057  53.1599 223.8649 0000633 106.9374 253.1698 15.34394630 31158","mean_motion":15.3439463,"eccentricity":6.33e-5,"inclination_deg":53.1599,"raan_deg":223.8649,"arg_perigee_deg":106.9374,"mean_anomaly_deg":253.1698,"bstar":0.00080707,"rev_number":3115,"period_min":93.848086525172,"perigee_km":462.28617482781,"apogee_km":463.15222722286,"semimajor_km":6840.8562010253,"source":"CELESTRAK","updated_at":"2026-09-20T09:00:43.750461Z"}}}